Time,TemperatureF,DewpointF,PressureIn,WindDirection,WindDirectionDegrees,WindSpeedMPH,WindSpeedGustMPH,Humidity,HourlyPrecipIn,Conditions,Clouds,dailyrainin,SoftwareType,DateUTC
2013-08-14 00:00:00,76.0,74.8,29.90,South,176,0.0,1.0,96,0.00,,,0.12,VWS V14.01,2013-08-14 04:00:00,
2013-08-14 00:01:00,76.0,74.8,29.90,South,177,0.0,1.0,96,0.00,,,0.12,VWS V14.01,2013-08-14 04:01:00,
2013-08-14 00:06:00,75.8,74.6,29.90,South,176,0.0,0.0,96,0.00,,,0.00,VWS V14.01,2013-08-14 04:06:00,
2013-08-14 00:11:00,75.8,74.6,29.90,South,177,0.0,1.0,96,0.00,,,0.00,VWS V14.01,2013-08-14 04:11:00,
2013-08-14 00:16:00,75.6,74.4,29.89,South,176,0.0,1.0,96,0.00,,,0.00,VWS V14.01,2013-08-14 04:16:00,
2013-08-14 00:21:00,75.6,74.4,29.89,South,176,0.0,1.0,96,0.00,,,0.00,VWS V14.01,2013-08-14 04:21:00,
2013-08-14 00:26:00,75.6,74.4,29.89,South,177,0.0,1.0,96,0.00,,,0.00,VWS V14.01,2013-08-14 04:26:00,
2013-08-14 00:30:00,75.4,74.2,29.90,South,178,0.0,1.0,96,0.00,,,0.00,VWS V14.01,2013-08-14 04:30:00,
2013-08-14 00:31:00,75.4,74.2,29.90,South,178,0.0,0.0,96,0.00,,,0.00,VWS V14.01,2013-08-14 04:31:00,
2013-08-14 00:36:00,75.4,74.2,29.90,South,177,0.0,1.0,96,0.00,,,0.00,VWS V14.01,2013-08-14 04:36:00,
2013-08-14 00:41:00,75.3,74.1,29.90,South,176,0.0,1.0,96,0.00,,,0.00,VWS V14.01,2013-08-14 04:41:00,
2013-08-14 00:46:00,75.3,74.4,29.90,South,176,0.0,1.0,97,0.00,,,0.00,VWS V14.01,2013-08-14 04:46:00,
2013-08-14 00:51:00,75.3,74.4,29.90,South,176,0.0,1.0,97,0.00,,,0.00,VWS V14.01,2013-08-14 04:51:00,
2013-08-14 00:56:00,75.3,74.4,29.90,South,176,0.0,1.0,97,0.00,,,0.00,VWS V14.01,2013-08-14 04:56:00,
2013-08-14 01:00:00,75.3,74.4,29.90,South,176,0.0,1.0,97,0.00,,,0.00,VWS V14.01,2013-08-14 05:00:00,
2013-08-14 01:01:00,75.3,74.4,29.90,South,178,0.0,0.0,97,0.00,,,0.00,VWS V14.01,2013-08-14 05:01:00,
2013-08-14 01:06:00,75.1,74.2,29.90,South,176,0.0,0.0,97,0.00,,,0.00,VWS V14.01,2013-08-14 05:06:00,
2013-08-14 01:11:00,75.1,74.2,29.90,South,175,0.0,0.0,97,0.00,,,0.00,VWS V14.01,2013-08-14 05:11:00,
2013-08-14 01:16:00,74.9,74.0,29.90,South,176,0.0,1.0,97,0.00,,,0.00,VWS V14.01,2013-08-14 05:16:00,
2013-08-14 01:21:00,74.9,74.0,29.90,South,178,0.0,1.0,97,0.00,,,0.00,VWS V14.01,2013-08-14 05:21:00,
2013-08-14 01:26:00,74.9,74.0,29.90,South,176,0.0,1.0,97,0.00,,,0.00,VWS V14.01,2013-08-14 05:26:00,
2013-08-14 01:30:00,74.9,74.0,29.89,South,176,0.0,1.0,97,0.00,,,0.00,VWS V14.01,2013-08-14 05:30:00,
2013-08-14 01:31:00,74.9,74.0,29.89,South,178,0.0,0.0,97,0.00,,,0.00,VWS V14.01,2013-08-14 05:31:00,
2013-08-14 01:36:00,74.9,74.0,29.89,South,178,0.0,1.0,97,0.00,,,0.00,VWS V14.01,2013-08-14 05:36:00,
2013-08-14 01:41:00,74.9,74.0,29.89,South,178,0.0,1.0,97,0.00,,,0.00,VWS V14.01,2013-08-14 05:41:00,
2013-08-14 01:46:00,74.7,73.8,29.88,South,178,0.0,1.0,97,0.00,,,0.00,VWS V14.01,2013-08-14 05:46:00,
2013-08-14 01:51:00,74.7,74.1,29.88,South,178,0.0,1.0,98,0.00,,,0.00,VWS V14.01,2013-08-14 05:51:00,
2013-08-14 01:56:00,74.7,74.1,29.88,South,177,0.0,1.0,98,0.00,,,0.00,VWS V14.01,2013-08-14 05:56:00,
2013-08-14 02:00:00,74.7,74.1,29.88,South,176,0.0,1.0,98,0.00,,,0.00,VWS V14.01,2013-08-14 06:00:00,
2013-08-14 02:01:00,74.7,74.1,29.88,South,176,0.0,0.0,98,0.00,,,0.00,VWS V14.01,2013-08-14 06:01:00,
2013-08-14 02:06:00,74.7,74.1,29.88,South,176,0.0,1.0,98,0.00,,,0.00,VWS V14.01,2013-08-14 06:06:00,
2013-08-14 02:11:00,74.7,74.1,29.88,South,176,0.0,1.0,98,0.00,,,0.00,VWS V14.01,2013-08-14 06:11:00,
2013-08-14 02:16:00,74.7,74.1,29.88,South,177,0.0,1.0,98,0.00,,,0.00,VWS V14.01,2013-08-14 06:16:00,
2013-08-14 02:21:00,74.7,74.1,29.88,South,178,0.0,1.0,98,0.00,,,0.00,VWS V14.01,2013-08-14 06:21:00,
2013-08-14 02:26:00,74.9,74.3,29.88,South,178,0.0,1.0,98,0.00,,,0.00,VWS V14.01,2013-08-14 06:26:00,
2013-08-14 02:30:00,74.9,74.0,29.87,South,186,0.0,4.0,97,0.00,,,0.00,VWS V14.01,2013-08-14 06:30:00,
2013-08-14 02:31:00,74.9,74.0,29.87,South,188,0.0,0.0,97,0.00,,,0.00,VWS V14.01,2013-08-14 06:31:00,
2013-08-14 02:36:00,74.9,74.0,29.87,South,186,0.0,1.0,97,0.00,,,0.00,VWS V14.01,2013-08-14 06:36:00,
2013-08-14 02:41:00,74.9,74.0,29.87,South,188,0.0,2.0,97,0.00,,,0.00,VWS V14.01,2013-08-14 06:41:00,
2013-08-14 02:46:00,74.9,74.0,29.87,South,188,0.0,2.0,97,0.00,,,0.00,VWS V14.01,2013-08-14 06:46:00,
2013-08-14 02:51:00,74.9,74.0,29.87,South,188,0.0,2.0,97,0.00,,,0.00,VWS V14.01,2013-08-14 06:51:00,
2013-08-14 02:56:00,74.9,74.0,29.87,South,188,0.0,2.0,97,0.00,,,0.00,VWS V14.01,2013-08-14 06:56:00,
2013-08-14 03:00:00,74.9,74.0,29.87,South,188,0.0,2.0,97,0.00,,,0.00,VWS V14.01,2013-08-14 07:00:00,
2013-08-14 03:01:00,74.9,74.0,29.87,South,188,0.0,2.0,97,0.00,,,0.00,VWS V14.01,2013-08-14 07:01:00,
2013-08-14 03:06:00,74.9,74.0,29.87,South,188,0.0,2.0,97,0.00,,,0.00,VWS V14.01,2013-08-14 07:06:00,
2013-08-14 03:11:00,74.9,74.0,29.87,South,187,0.0,2.0,97,0.00,,,0.00,VWS V14.01,2013-08-14 07:11:00,
2013-08-14 03:16:00,74.9,74.0,29.87,South,187,0.0,2.0,97,0.00,,,0.00,VWS V14.01,2013-08-14 07:16:00,
2013-08-14 03:21:00,74.7,73.8,29.87,South,188,0.0,2.0,97,0.00,,,0.00,VWS V14.01,2013-08-14 07:21:00,
2013-08-14 03:26:00,74.7,73.8,29.87,South,186,0.0,2.0,97,0.00,,,0.00,VWS V14.01,2013-08-14 07:26:00,
2013-08-14 03:30:00,74.8,73.9,29.86,South,180,0.0,2.0,97,0.00,,,0.00,VWS V14.01,2013-08-14 07:30:00,
2013-08-14 04:00:00,74.6,74.0,29.86,South,180,0.0,2.0,98,0.00,,,0.00,VWS V14.01,2013-08-14 08:00:00,
2013-08-14 04:30:00,74.6,74.0,29.85,South,180,0.0,1.0,98,0.00,,,0.00,VWS V14.01,2013-08-14 08:30:00,
2013-08-14 05:00:00,74.6,74.0,29.85,South,180,0.0,2.0,98,0.00,,,0.00,VWS V14.01,2013-08-14 09:00:00,
2013-08-14 05:30:00,74.6,74.0,29.86,South,180,0.0,3.0,98,0.00,,,0.00,VWS V14.01,2013-08-14 09:30:00,
2013-08-14 06:00:00,74.6,74.0,29.85,SSW,202,0.0,5.0,98,0.00,,,0.00,VWS V14.01,2013-08-14 10:00:00,
2013-08-14 06:30:00,74.4,73.8,29.85,SSW,202,0.0,1.0,98,0.00,,,0.00,VWS V14.01,2013-08-14 10:30:00,
2013-08-14 07:00:00,74.0,73.4,29.86,SSW,202,0.0,1.0,98,0.00,,,0.00,VWS V14.01,2013-08-14 11:00:00,
2013-08-14 07:30:00,74.1,73.5,29.87,SSW,202,0.0,1.0,98,0.00,,,0.00,VWS V14.01,2013-08-14 11:30:00,
2013-08-14 08:00:00,74.6,73.4,29.88,SSW,202,0.0,1.0,96,0.00,,,0.00,VWS V14.01,2013-08-14 12:00:00,
2013-08-14 08:30:00,76.3,73.2,29.88,SSW,202,0.0,1.0,90,0.00,,,0.00,VWS V14.01,2013-08-14 12:30:00,
2013-08-14 09:00:00,78.8,74.6,29.88,SW,225,1.0,6.0,87,0.00,,,0.00,VWS V14.01,2013-08-14 13:00:00,
2013-08-14 09:30:00,81.0,74.6,29.87,SW,225,1.0,7.0,81,0.00,,,0.00,VWS V14.01,2013-08-14 13:30:00,
2013-08-14 10:00:00,82.9,75.3,29.87,WSW,248,1.0,7.0,78,0.00,,,0.00,VWS V14.01,2013-08-14 14:00:00,
2013-08-14 10:30:00,84.6,75.8,29.88,WSW,248,1.0,5.0,75,0.00,,,0.00,VWS V14.01,2013-08-14 14:30:00,
2013-08-14 11:00:00,85.6,76.0,29.88,WNW,292,1.0,9.0,73,0.00,,,0.00,VWS V14.01,2013-08-14 15:00:00,
2013-08-14 11:42:00,87.8,74.6,29.88,West,281,0.0,1.0,65,0.00,,,0.00,VWS V14.01,2013-08-14 15:42:00,
2013-08-14 11:47:00,87.2,75.4,29.88,West,281,0.0,1.0,68,0.00,,,0.00,VWS V14.01,2013-08-14 15:47:00,
2013-08-14 11:54:00,87.0,76.0,29.88,West,275,0.0,1.0,70,0.00,,,0.00,VWS V14.01,2013-08-14 15:54:00,
2013-08-14 11:59:00,87.8,75.0,29.88,West,278,3.0,5.0,66,0.00,,,0.00,VWS V14.01,2013-08-14 15:59:00,
2013-08-14 12:00:00,88.2,74.5,29.88,WNW,286,0.0,6.0,64,0.00,,,0.00,VWS V14.01,2013-08-14 16:00:00,
2013-08-14 12:04:00,88.8,75.1,29.88,NNE,12,0.0,5.0,64,0.00,,,0.00,VWS V14.01,2013-08-14 16:04:00,
2013-08-14 12:09:00,88.6,75.3,29.88,SW,225,1.0,5.0,65,0.00,,,0.00,VWS V14.01,2013-08-14 16:09:00,
2013-08-14 12:14:00,87.8,75.9,29.88,WSW,242,0.0,5.0,68,0.00,,,0.00,VWS V14.01,2013-08-14 16:14:00,
2013-08-14 12:19:00,88.2,75.9,29.88,NNW,340,3.0,5.0,67,0.00,,,0.00,VWS V14.01,2013-08-14 16:19:00,
2013-08-14 12:24:00,88.6,74.9,29.88,West,279,3.0,7.0,64,0.00,,,0.00,VWS V14.01,2013-08-14 16:24:00,
2013-08-14 12:29:00,88.6,74.9,29.88,West,278,0.0,7.0,64,0.00,,,0.00,VWS V14.01,2013-08-14 16:29:00,
2013-08-14 12:30:00,88.6,74.4,29.88,West,278,0.0,7.0,63,0.00,,,0.00,VWS V14.01,2013-08-14 16:30:00,
2013-08-14 12:34:00,88.6,74.4,29.88,West,279,3.0,3.0,63,0.00,,,0.00,VWS V14.01,2013-08-14 16:34:00,
2013-08-14 12:39:00,87.8,75.0,29.88,West,276,0.0,4.0,66,0.00,,,0.00,VWS V14.01,2013-08-14 16:39:00,
2013-08-14 12:44:00,87.2,74.9,29.88,West,277,0.0,5.0,67,0.00,,,0.00,VWS V14.01,2013-08-14 16:44:00,
2013-08-14 12:49:00,87.0,75.2,29.87,West,273,0.0,5.0,68,0.00,,,0.00,VWS V14.01,2013-08-14 16:49:00,
2013-08-14 12:54:00,87.0,76.5,29.87,West,272,0.0,5.0,71,0.00,,,0.00,VWS V14.01,2013-08-14 16:54:00,
2013-08-14 12:59:00,88.0,74.8,29.87,West,274,1.0,5.0,65,0.00,,,0.00,VWS V14.01,2013-08-14 16:59:00,
2013-08-14 13:00:00,88.2,73.5,29.86,West,273,0.0,5.0,62,0.00,,,0.00,VWS V14.01,2013-08-14 17:00:00,
2013-08-14 13:04:00,88.4,75.1,29.86,West,273,0.0,2.0,65,0.00,,,0.00,VWS V14.01,2013-08-14 17:04:00,
2013-08-14 13:09:00,88.8,73.6,29.86,West,259,0.0,2.0,61,0.00,,,0.00,VWS V14.01,2013-08-14 17:09:00,
2013-08-14 13:14:00,89.7,75.9,29.86,SW,225,3.0,4.0,64,0.00,,,0.00,VWS V14.01,2013-08-14 17:14:00,
2013-08-14 13:19:00,89.7,74.5,29.86,SSW,200,4.0,6.0,61,0.00,,,0.00,VWS V14.01,2013-08-14 17:19:00,
2013-08-14 13:24:00,89.9,73.7,29.86,WSW,237,0.0,6.0,59,0.00,,,0.00,VWS V14.01,2013-08-14 17:24:00,
2013-08-14 13:29:00,90.1,73.8,29.86,North,355,0.0,7.0,59,0.00,,,0.00,VWS V14.01,2013-08-14 17:29:00,
2013-08-14 13:30:00,90.3,74.5,29.86,West,261,3.0,7.0,60,0.00,,,0.00,VWS V14.01,2013-08-14 17:30:00,
2013-08-14 13:34:00,90.5,74.2,29.86,SW,230,0.0,5.0,59,0.00,,,0.00,VWS V14.01,2013-08-14 17:34:00,
2013-08-14 13:39:00,90.3,73.5,29.86,West,273,0.0,6.0,58,0.00,,,0.00,VWS V14.01,2013-08-14 17:39:00,
2013-08-14 13:44:00,91.0,75.2,29.86,West,275,0.0,6.0,60,0.00,,,0.00,VWS V14.01,2013-08-14 17:44:00,
2013-08-14 13:49:00,91.4,75.1,29.86,West,276,0.0,6.0,59,0.00,,,0.00,VWS V14.01,2013-08-14 17:49:00,
2013-08-14 13:54:00,91.6,72.6,29.86,West,276,0.0,6.0,54,0.00,,,0.00,VWS V14.01,2013-08-14 17:54:00,
2013-08-14 13:59:00,91.8,73.3,29.86,ESE,117,0.0,6.0,55,0.00,,,0.00,VWS V14.01,2013-08-14 17:59:00,
2013-08-14 14:00:00,92.1,74.2,29.85,SE,124,1.0,6.0,56,0.00,,,0.00,VWS V14.01,2013-08-14 18:00:00,
2013-08-14 14:04:00,92.1,73.6,29.85,SSW,202,3.0,4.0,55,0.00,,,0.00,VWS V14.01,2013-08-14 18:04:00,
2013-08-14 14:09:00,91.0,74.2,29.85,South,191,0.0,4.0,58,0.00,,,0.00,VWS V14.01,2013-08-14 18:09:00,
2013-08-14 14:14:00,90.5,75.2,29.85,SSW,196,0.0,4.0,61,0.00,,,0.00,VWS V14.01,2013-08-14 18:14:00,
2013-08-14 14:19:00,90.7,72.9,29.84,WSW,249,0.0,4.0,56,0.00,,,0.00,VWS V14.01,2013-08-14 18:19:00,
2013-08-14 14:25:00,91.4,73.5,29.84,SSW,194,1.0,5.0,56,0.00,,,0.00,VWS V14.01,2013-08-14 18:25:00,
2013-08-14 14:30:00,91.6,73.7,29.84,SW,222,0.0,5.0,56,0.00,,,0.00,VWS V14.01,2013-08-14 18:30:00,
2013-08-14 14:35:00,90.7,73.4,29.84,SW,215,0.0,1.0,57,0.00,,,0.00,VWS V14.01,2013-08-14 18:35:00,
2013-08-14 14:40:00,90.5,73.7,29.84,SSW,210,0.0,1.0,58,0.00,,,0.00,VWS V14.01,2013-08-14 18:40:00,
2013-08-14 14:45:00,91.0,73.7,29.84,ESE,122,0.0,6.0,57,0.00,,,0.00,VWS V14.01,2013-08-14 18:45:00,
2013-08-14 14:50:00,90.5,74.2,29.84,ESE,121,0.0,6.0,59,0.00,,,0.00,VWS V14.01,2013-08-14 18:50:00,
2013-08-14 14:55:00,90.1,74.8,29.84,ESE,119,0.0,6.0,61,0.00,,,0.00,VWS V14.01,2013-08-14 18:55:00,
2013-08-14 15:00:00,90.7,73.9,29.83,ESE,115,0.0,6.0,58,0.00,,,0.00,VWS V14.01,2013-08-14 19:00:00,
2013-08-14 15:05:00,91.0,75.7,29.83,ESE,117,0.0,1.0,61,0.00,,,0.00,VWS V14.01,2013-08-14 19:05:00,
2013-08-14 15:12:00,91.4,75.6,29.83,ESE,111,0.0,4.0,60,0.00,,,0.00,VWS V14.01,2013-08-14 19:12:00,
2013-08-14 15:17:00,91.0,73.7,29.83,South,180,3.0,6.0,57,0.00,,,0.00,VWS V14.01,2013-08-14 19:17:00,
2013-08-14 15:22:00,90.3,73.0,29.83,ESE,117,0.0,6.0,57,0.00,,,0.00,VWS V14.01,2013-08-14 19:22:00,
2013-08-14 15:28:00,89.7,73.5,29.83,SE,145,6.0,6.0,59,0.00,,,0.00,VWS V14.01,2013-08-14 19:28:00,
2013-08-14 15:30:00,89.5,73.3,29.82,ESE,119,5.0,10.0,59,0.00,,,0.00,VWS V14.01,2013-08-14 19:30:00,
2013-08-14 15:33:00,89.3,74.6,29.82,SE,139,5.0,12.0,62,0.00,,,0.00,VWS V14.01,2013-08-14 19:33:00,
2013-08-14 15:38:00,88.4,73.7,29.82,SSW,199,1.0,14.0,62,0.00,,,0.00,VWS V14.01,2013-08-14 19:38:00,
2013-08-14 15:43:00,86.7,74.9,29.82,SW,223,0.0,14.0,68,0.00,,,0.00,VWS V14.01,2013-08-14 19:43:00,
2013-08-14 15:48:00,85.5,73.7,29.83,SW,230,0.0,14.0,68,0.00,,,0.00,VWS V14.01,2013-08-14 19:48:00,
2013-08-14 15:53:00,84.7,74.7,29.83,West,277,0.0,14.0,72,0.00,,,0.00,VWS V14.01,2013-08-14 19:53:00,
2013-08-14 15:58:00,83.8,73.4,29.83,WNW,297,6.0,14.0,71,0.00,,,0.00,VWS V14.01,2013-08-14 19:58:00,
2013-08-14 16:00:00,83.4,71.3,29.82,WNW,284,0.0,14.0,67,0.00,,,0.00,VWS V14.01,2013-08-14 20:00:00,
2013-08-14 16:03:00,83.2,72.0,29.82,WNW,283,0.0,3.0,69,0.00,,,0.00,VWS V14.01,2013-08-14 20:03:00,
2013-08-14 16:08:00,83.8,75.0,29.82,SE,134,2.0,7.0,75,0.01,,,0.01,VWS V14.01,2013-08-14 20:08:00,
2013-08-14 16:13:00,83.4,77.7,29.82,SE,126,0.0,7.0,83,0.01,,,0.01,VWS V14.01,2013-08-14 20:13:00,
2013-08-14 16:18:00,84.3,77.5,29.81,SE,124,0.0,7.0,80,0.01,,,0.01,VWS V14.01,2013-08-14 20:18:00,
2013-08-14 16:23:00,84.5,74.1,29.81,SE,146,7.0,15.0,71,0.02,,,0.02,VWS V14.01,2013-08-14 20:23:00,
2013-08-14 16:28:00,83.8,75.0,29.81,SSE,157,0.0,15.0,75,0.02,,,0.02,VWS V14.01,2013-08-14 20:28:00,
2013-08-14 16:30:00,83.8,77.0,29.81,ESE,118,0.0,15.0,80,0.03,,,0.03,VWS V14.01,2013-08-14 20:30:00,
2013-08-14 16:34:00,83.2,75.2,29.81,NNE,20,0.0,4.0,77,0.03,,,0.03,VWS V14.01,2013-08-14 20:34:00,
2013-08-14 16:39:00,82.6,76.6,29.81,NNE,20,0.0,4.0,82,0.03,,,0.03,VWS V14.01,2013-08-14 20:39:00,
2013-08-14 16:44:00,81.8,76.1,29.81,NW,308,0.0,4.0,83,0.03,,,0.03,VWS V14.01,2013-08-14 20:44:00,
2013-08-14 16:49:00,82.2,74.7,29.81,NW,314,4.0,5.0,78,0.03,,,0.03,VWS V14.01,2013-08-14 20:49:00,
2013-08-14 16:54:00,82.8,74.9,29.81,NW,315,0.0,5.0,77,0.03,,,0.03,VWS V14.01,2013-08-14 20:54:00,
2013-08-14 16:59:00,83.2,75.6,29.81,NW,317,0.0,5.0,78,0.03,,,0.03,VWS V14.01,2013-08-14 20:59:00,
2013-08-14 17:00:00,83.2,75.6,29.81,NW,316,0.0,5.0,78,0.03,,,0.03,VWS V14.01,2013-08-14 21:00:00,
2013-08-14 17:04:00,83.2,75.6,29.81,NW,316,0.0,0.0,78,0.03,,,0.03,VWS V14.01,2013-08-14 21:04:00,
2013-08-14 17:09:00,83.8,75.0,29.81,NW,316,0.0,1.0,75,0.03,,,0.03,VWS V14.01,2013-08-14 21:09:00,
2013-08-14 17:14:00,84.7,74.3,29.81,West,272,2.0,9.0,71,0.03,,,0.03,VWS V14.01,2013-08-14 21:14:00,
2013-08-14 17:19:00,85.3,75.2,29.81,WNW,284,0.0,9.0,72,0.03,,,0.03,VWS V14.01,2013-08-14 21:19:00,
2013-08-14 17:24:00,85.5,75.0,29.81,WNW,284,0.0,9.0,71,0.03,,,0.03,VWS V14.01,2013-08-14 21:24:00,
2013-08-14 17:29:00,85.9,75.4,29.81,WNW,285,3.0,9.0,71,0.03,,,0.03,VWS V14.01,2013-08-14 21:29:00,
2013-08-14 17:30:00,85.9,75.4,29.82,WNW,290,0.0,9.0,71,0.03,,,0.03,VWS V14.01,2013-08-14 21:30:00,
2013-08-14 17:34:00,85.9,74.6,29.82,West,272,2.0,6.0,69,0.00,,,0.03,VWS V14.01,2013-08-14 21:34:00,
2013-08-14 17:39:00,85.5,75.9,29.82,West,271,0.0,6.0,73,0.00,,,0.03,VWS V14.01,2013-08-14 21:39:00,
2013-08-14 17:45:00,84.7,75.1,29.82,West,273,0.0,6.0,73,0.00,,,0.03,VWS V14.01,2013-08-14 21:45:00,
2013-08-14 17:50:00,84.1,74.1,29.82,West,273,0.0,6.0,72,0.00,,,0.03,VWS V14.01,2013-08-14 21:50:00,
2013-08-14 17:55:00,84.0,73.2,29.82,NNW,327,4.0,6.0,70,0.00,,,0.03,VWS V14.01,2013-08-14 21:55:00,
2013-08-14 18:00:00,83.8,73.8,29.81,WNW,284,4.0,7.0,72,0.00,,,0.03,VWS V14.01,2013-08-14 22:00:00,
2013-08-14 18:05:00,83.8,73.0,29.81,WNW,290,2.0,6.0,70,0.00,,,0.03,VWS V14.01,2013-08-14 22:05:00,
2013-08-14 18:10:00,83.6,73.6,29.81,West,275,0.0,6.0,72,0.00,,,0.03,VWS V14.01,2013-08-14 22:10:00,
2013-08-14 18:15:00,83.8,73.4,29.80,West,275,0.0,6.0,71,0.00,,,0.03,VWS V14.01,2013-08-14 22:15:00,
2013-08-14 18:20:00,84.0,72.7,29.80,WNW,284,5.0,10.0,69,0.00,,,0.03,VWS V14.01,2013-08-14 22:20:00,
2013-08-14 18:25:00,83.6,72.8,29.80,WNW,301,3.0,10.0,70,0.00,,,0.03,VWS V14.01,2013-08-14 22:25:00,
2013-08-14 18:30:00,83.2,72.8,29.82,WNW,286,0.0,10.0,71,0.00,,,0.03,VWS V14.01,2013-08-14 22:30:00,
2013-08-14 18:35:00,83.0,72.6,29.82,West,264,0.0,7.0,71,0.00,,,0.03,VWS V14.01,2013-08-14 22:35:00,
2013-08-14 18:40:00,82.8,72.4,29.82,NW,313,0.0,7.0,71,0.00,,,0.03,VWS V14.01,2013-08-14 22:40:00,
2013-08-14 18:45:00,82.4,72.1,29.82,North,360,0.0,9.0,71,0.00,,,0.03,VWS V14.01,2013-08-14 22:45:00,
2013-08-14 18:50:00,82.2,72.7,29.82,NNW,345,0.0,9.0,73,0.00,,,0.03,VWS V14.01,2013-08-14 22:50:00,
2013-08-14 18:55:00,82.2,71.9,29.82,WNW,290,0.0,9.0,71,0.00,,,0.03,VWS V14.01,2013-08-14 22:55:00,
2013-08-14 19:00:00,82.2,71.9,29.83,North,349,0.0,9.0,71,0.00,,,0.03,VWS V14.01,2013-08-14 23:00:00,
2013-08-14 19:05:00,82.2,71.9,29.83,NNW,348,1.0,1.0,71,0.00,,,0.03,VWS V14.01,2013-08-14 23:05:00,
2013-08-14 19:10:00,82.4,71.6,29.83,NNW,348,1.0,4.0,70,0.00,,,0.03,VWS V14.01,2013-08-14 23:10:00,
2013-08-14 19:15:00,82.2,71.4,29.83,North,5,4.0,10.0,70,0.00,,,0.03,VWS V14.01,2013-08-14 23:15:00,
2013-08-14 19:20:00,81.8,70.6,29.83,North,360,0.0,10.0,69,0.00,,,0.03,VWS V14.01,2013-08-14 23:20:00,
2013-08-14 19:25:00,81.6,70.4,29.83,North,5,0.0,10.0,69,0.00,,,0.03,VWS V14.01,2013-08-14 23:25:00,
2013-08-14 19:30:00,81.4,71.1,29.83,North,5,0.0,10.0,71,0.00,,,0.03,VWS V14.01,2013-08-14 23:30:00,
2013-08-14 19:35:00,81.1,70.4,29.83,North,5,0.0,4.0,70,0.00,,,0.03,VWS V14.01,2013-08-14 23:35:00,
2013-08-14 19:40:00,80.9,70.6,29.83,North,5,0.0,4.0,71,0.00,,,0.03,VWS V14.01,2013-08-14 23:40:00,
2013-08-14 19:45:00,80.7,70.4,29.83,NE,38,0.0,4.0,71,0.00,,,0.03,VWS V14.01,2013-08-14 23:45:00,
2013-08-14 19:50:00,80.7,70.4,29.83,NE,41,0.0,5.0,71,0.00,,,0.03,VWS V14.01,2013-08-14 23:50:00,
2013-08-14 19:55:00,80.5,70.2,29.83,NE,42,0.0,5.0,71,0.00,,,0.03,VWS V14.01,2013-08-14 23:55:00,
2013-08-14 20:00:00,80.5,70.7,29.84,NE,41,0.0,5.0,72,0.00,,,0.03,VWS V14.01,2013-08-15 00:00:00,
2013-08-14 20:01:00,80.5,70.7,29.84,NE,41,0.0,5.0,72,0.00,,,0.03,VWS V14.01,2013-08-15 00:01:00,
2013-08-14 20:06:00,80.3,70.5,29.84,North,360,0.0,4.0,72,0.00,,,0.03,VWS V14.01,2013-08-15 00:06:00,
2013-08-14 20:11:00,80.1,70.7,29.84,North,360,0.0,4.0,73,0.00,,,0.03,VWS V14.01,2013-08-15 00:11:00,
2013-08-14 20:16:00,79.8,70.8,29.84,North,5,0.0,4.0,74,0.00,,,0.03,VWS V14.01,2013-08-15 00:16:00,
2013-08-14 20:21:00,79.6,71.0,29.84,North,5,0.0,4.0,75,0.00,,,0.03,VWS V14.01,2013-08-15 00:21:00,
2013-08-14 20:26:00,79.6,71.8,29.84,North,5,0.0,4.0,77,0.00,,,0.03,VWS V14.01,2013-08-15 00:26:00,
2013-08-14 20:30:00,79.4,71.9,29.85,North,5,0.0,4.0,78,0.00,,,0.03,VWS V14.01,2013-08-15 00:30:00,
2013-08-14 20:31:00,79.4,71.9,29.85,North,5,0.0,4.0,78,0.00,,,0.03,VWS V14.01,2013-08-15 00:31:00,
2013-08-14 20:36:00,79.4,71.9,29.85,North,5,2.0,3.0,78,0.00,,,0.03,VWS V14.01,2013-08-15 00:36:00,
2013-08-14 20:41:00,79.2,72.1,29.85,North,5,0.0,3.0,79,0.00,,,0.03,VWS V14.01,2013-08-15 00:41:00,
2013-08-14 20:46:00,79.2,72.1,29.85,North,5,0.0,3.0,79,0.00,,,0.03,VWS V14.01,2013-08-15 00:46:00,
2013-08-14 20:51:00,79.0,72.3,29.85,North,5,0.0,3.0,80,0.00,,,0.03,VWS V14.01,2013-08-15 00:51:00,
2013-08-14 20:56:00,79.2,72.5,29.85,North,5,0.0,3.0,80,0.00,,,0.03,VWS V14.01,2013-08-15 00:56:00,
2013-08-14 21:00:00,79.2,72.9,29.86,North,5,0.0,3.0,81,0.00,,,0.03,VWS V14.01,2013-08-15 01:00:00,
2013-08-14 21:01:00,79.2,72.9,29.86,North,5,0.0,0.0,81,0.00,,,0.03,VWS V14.01,2013-08-15 01:01:00,
2013-08-14 21:06:00,79.2,73.6,29.86,North,5,0.0,0.0,83,0.00,,,0.03,VWS V14.01,2013-08-15 01:06:00,
2013-08-14 21:11:00,79.0,73.4,29.86,North,5,0.0,1.0,83,0.00,,,0.03,VWS V14.01,2013-08-15 01:11:00,
2013-08-14 21:16:00,79.0,73.4,29.86,North,5,0.0,1.0,83,0.00,,,0.03,VWS V14.01,2013-08-15 01:16:00,
2013-08-14 21:21:00,79.0,73.8,29.86,ENE,74,0.0,5.0,84,0.00,,,0.03,VWS V14.01,2013-08-15 01:21:00,
2013-08-14 21:26:00,79.0,73.8,29.86,ENE,73,0.0,5.0,84,0.00,,,0.03,VWS V14.01,2013-08-15 01:26:00,
2013-08-14 21:30:00,79.2,73.6,29.86,ENE,71,0.0,5.0,83,0.00,,,0.03,VWS V14.01,2013-08-15 01:30:00,
2013-08-14 21:31:00,79.2,73.9,29.86,ENE,73,0.0,0.0,84,0.00,,,0.03,VWS V14.01,2013-08-15 01:31:00,
2013-08-14 21:36:00,79.4,74.2,29.86,ENE,75,0.0,1.0,84,0.00,,,0.03,VWS V14.01,2013-08-15 01:36:00,
2013-08-14 21:41:00,79.2,73.9,29.86,SSE,149,0.0,4.0,84,0.00,,,0.03,VWS V14.01,2013-08-15 01:41:00,
2013-08-14 21:46:00,79.0,74.8,29.88,WSW,246,0.0,6.0,87,0.03,,,0.06,VWS V14.01,2013-08-15 01:46:00,
2013-08-14 21:51:00,78.3,74.5,29.88,SW,225,0.0,6.0,88,0.07,,,0.10,VWS V14.01,2013-08-15 01:51:00,
2013-08-14 21:56:00,77.7,74.5,29.88,SW,224,0.0,6.0,90,0.13,,,0.16,VWS V14.01,2013-08-15 01:56:00,
2013-08-14 22:00:00,77.2,74.7,29.91,SW,223,0.0,6.0,92,0.16,,,0.19,VWS V14.01,2013-08-15 02:00:00,
2013-08-14 22:01:00,77.2,74.7,29.91,SW,224,0.0,0.0,92,0.16,,,0.19,VWS V14.01,2013-08-15 02:01:00,
2013-08-14 22:06:00,76.8,74.6,29.91,West,275,8.0,9.0,93,0.29,,,0.32,VWS V14.01,2013-08-15 02:06:00,
2013-08-14 22:11:00,75.6,71.5,29.91,NNW,328,3.0,14.0,87,0.49,,,0.52,VWS V14.01,2013-08-15 02:11:00,
2013-08-14 22:16:00,75.3,72.8,29.90,NNW,342,0.0,14.0,92,0.52,,,0.55,VWS V14.01,2013-08-15 02:16:00,
2013-08-14 22:21:00,74.9,72.7,29.90,SSW,193,9.0,14.0,93,0.52,,,0.55,VWS V14.01,2013-08-15 02:21:00,
2013-08-14 22:26:00,74.7,73.2,29.90,SSE,160,2.0,14.0,95,0.58,,,0.61,VWS V14.01,2013-08-15 02:26:00,
2013-08-14 22:30:00,74.9,73.7,29.91,SSW,204,0.0,14.0,96,0.72,,,0.75,VWS V14.01,2013-08-15 02:30:00,
2013-08-14 22:31:00,74.9,73.7,29.91,SSW,203,0.0,1.0,96,0.73,,,0.76,VWS V14.01,2013-08-15 02:31:00,
2013-08-14 22:36:00,74.7,73.5,29.91,SW,221,0.0,7.0,96,0.78,,,0.81,VWS V14.01,2013-08-15 02:36:00,
2013-08-14 22:41:00,74.9,74.0,29.91,SW,228,0.0,7.0,97,0.84,,,0.87,VWS V14.01,2013-08-15 02:41:00,
2013-08-14 22:46:00,75.1,74.5,29.93,WSW,237,3.0,7.0,98,1.07,,,1.10,VWS V14.01,2013-08-15 02:46:00,
2013-08-14 22:51:00,75.3,74.7,29.93,SW,227,0.0,9.0,98,1.25,,,1.28,VWS V14.01,2013-08-15 02:51:00,
2013-08-14 22:56:00,74.7,73.8,29.93,West,275,0.0,9.0,97,1.42,,,1.45,VWS V14.01,2013-08-15 02:56:00,
2013-08-14 23:00:00,74.6,74.0,29.93,West,268,2.0,9.0,98,1.43,,,1.46,VWS V14.01,2013-08-15 03:00:00,
2013-08-14 23:01:00,74.6,74.0,29.93,West,268,2.0,2.0,98,1.27,,,1.46,VWS V14.01,2013-08-15 03:01:00,
2013-08-14 23:06:00,74.4,73.8,29.93,West,270,1.0,3.0,98,1.29,,,1.48,VWS V14.01,2013-08-15 03:06:00,
2013-08-14 23:11:00,74.2,73.6,29.93,West,270,0.0,4.0,98,1.29,,,1.48,VWS V14.01,2013-08-15 03:11:00,
2013-08-14 23:16:00,74.0,73.4,29.93,West,271,0.0,4.0,98,1.29,,,1.48,VWS V14.01,2013-08-15 03:16:00,
2013-08-14 23:21:00,74.0,73.4,29.93,West,271,0.0,4.0,98,1.30,,,1.49,VWS V14.01,2013-08-15 03:21:00,
2013-08-14 23:26:00,74.0,73.4,29.93,West,271,0.0,4.0,98,1.30,,,1.49,VWS V14.01,2013-08-15 03:26:00,
2013-08-14 23:30:00,74.0,73.7,29.92,West,271,0.0,4.0,99,1.30,,,1.49,VWS V14.01,2013-08-15 03:30:00,
2013-08-14 23:31:00,74.0,73.7,29.92,West,271,0.0,0.0,99,0.74,,,1.49,VWS V14.01,2013-08-15 03:31:00,
2013-08-14 23:36:00,73.9,73.3,29.92,West,271,0.0,1.0,98,0.74,,,1.49,VWS V14.01,2013-08-15 03:36:00,
2013-08-14 23:41:00,73.9,73.6,29.92,West,271,0.0,1.0,99,0.74,,,1.49,VWS V14.01,2013-08-15 03:41:00,
2013-08-14 23:46:00,73.9,73.6,29.92,NNE,15,0.0,4.0,99,0.74,,,1.49,VWS V14.01,2013-08-15 03:46:00,
2013-08-14 23:51:00,73.7,73.4,29.92,North,360,3.0,4.0,99,0.74,,,1.49,VWS V14.01,2013-08-15 03:51:00,
2013-08-14 23:56:00,73.3,72.7,29.92,North,360,0.0,4.0,98,0.74,,,1.49,VWS V14.01,2013-08-15 03:56:00,